Weather in Kulikovo

Russia / Republic of Karelia     61°11′23″N   29°45′07″E
temp.,
°C
wind,
m/s
gust,
m/s
humid.,
%
clouds,
%
prec.,
mm/h
press.,
hPa
HPBL,
m
4 august, wed
wed400:00+12wnw51271100 0.0 10051049
03:00+10wsw412755 0.0 1006467
06:00+11wsw412740 0.0 1008444
09:00+16w510545 0.0 1009998
12:00+19w683924 0.0 10112291
15:00+19w4740100 0.0 10121683
18:00+18wsw365188 0.0 10131065
21:00+14sw357223 0.0 1014116
5 august, thu
thu500:00+13wsw2570100 0.0 1015112
03:00+12wsw257478 0.0 1016104
06:00+12wsw2473100 0.0 1016107
09:00+15sw126198 0.0 1017229
12:00+18ssw124990 0.0 1017899
15:00+15se3564100 0.0 1018372
18:00+17ese235871 0.0 1018365
21:00+14ese226476 0.0 101842
6 august, fri
fri600:00+14e126299 0.0 101842
03:00+12ene227328 0.0 101957
06:00+12ene237720 0.0 101963
09:00+17ene345913 0.0 1019463
12:00+19e444731 0.0 10191179
15:00+20e353952 0.0 10191424
18:00+19e354430 0.0 1019909
21:00+14ne257124 0.0 1019111
7 august, sat
sat700:00+13ene39785 0.0 1020194
03:00+12ene38855 0.0 1020226
06:00+12ene410825 0.0 1021382
09:00+16ene611620 0.0 1021829
12:00+18ene7104438 0.0 10201401
15:00+20e6104198 0.0 10191585
18:00+18ene41054100 0.0 10181192
21:00+17ene6125543 0.0 1019851
8 august, sun
sun800:00+16ene61360100 0.0 1018795
03:00+15ene61468100 0.0 1018721
06:00+15ene71469100 0.0 1017864
09:00+15e81670100 0.1 10171233
12:00+12e91792100 2.2 10171024
15:00+12e81495100 5.3 10171026
18:00+13e71296100 1.3 1017900
21:00+13e61197100 2.1 1017784